Tiempo cada hora Barra do Piraí

Hoy, 1 Marzo, Lunes

Tiempo Temperatura Precipitaciones Viento Presión Humedad
00:00 +21°C° 0.1 mm 1 mps 727 mmHg 97%
01:00 +21°C° 0 mm 1 mps 727 mmHg 97%
02:00 +21°C° 0 mm 1 mps 726 mmHg 97%
03:00 +20°C° 0 mm 1 mps 726 mmHg 97%
04:00 +20°C° 0 mm 1 mps 726 mmHg 97%
05:00 +20°C° 0 mm 1 mps 726 mmHg 97%
06:00 +20°C° 0 mm 1 mps 726 mmHg 97%
07:00 +21°C° 0 mm 1 mps 727 mmHg 90%
08:00 +23°C° 0 mm 1 mps 728 mmHg 84%
09:00 +25°C° 0 mm 2 mps 728 mmHg 77%
10:00 +26°C° 0 mm 2 mps 728 mmHg 74%
11:00 +27°C° 0 mm 2 mps 728 mmHg 70%
12:00 +28°C° 0 mm 3 mps 728 mmHg 67%
13:00 +29°C° 0 mm 3 mps 727 mmHg 66%
14:00 +29°C° 0 mm 2 mps 727 mmHg 66%
15:00 +29°C° 0 mm 2 mps 726 mmHg 66%
16:00 +28°C° 0 mm 2 mps 726 mmHg 72%
17:00 +27°C° 0 mm 1 mps 726 mmHg 79%
18:00 +25°C° 0 mm 1 mps 726 mmHg 85%
19:00 +25°C° 0 mm 1 mps 726 mmHg 88%
20:00 +24°C° 0 mm 1 mps 727 mmHg 90%
21:00 +23°C° 0 mm 1 mps 727 mmHg 93%
22:00 +22°C° 0 mm 1 mps 727 mmHg 93%
23:00 +22°C° 0 mm 1 mps 727 mmHg 94%

Mañana, 2 Marzo, Martes

Tiempo Temperatura Precipitaciones Viento Presión Humedad
00:00 +22°C° 0 mm 1 mps 727 mmHg 95%
01:00 +22°C° 0 mm 1 mps 727 mmHg 96%
02:00 +21°C° 0 mm 1 mps 727 mmHg 96%
03:00 +21°C° 0 mm 1 mps 727 mmHg 96%
04:00 +21°C° 0 mm 1 mps 727 mmHg 96%
05:00 +21°C° 0 mm 1 mps 727 mmHg 95%
06:00 +21°C° 0 mm 1 mps 727 mmHg 94%
07:00 +23°C° 0 mm 1 mps 728 mmHg 89%
08:00 +25°C° 0 mm 2 mps 728 mmHg 83%
09:00 +27°C° 0 mm 2 mps 729 mmHg 77%
10:00 +28°C° 0 mm 2 mps 729 mmHg 72%
11:00 +29°C° 0 mm 2 mps 729 mmHg 67%
12:00 +30°C° 0 mm 3 mps 729 mmHg 63%
13:00 +30°C° 0.2 mm 3 mps 728 mmHg 64%
14:00 +30°C° 0.2 mm 3 mps 728 mmHg 65%
15:00 +30°C° 0.2 mm 3 mps 727 mmHg 66%
16:00 +29°C° 0.2 mm 2 mps 727 mmHg 73%
17:00 +27°C° 0.2 mm 2 mps 727 mmHg 80%
18:00 +26°C° 0.2 mm 1 mps 727 mmHg 88%
19:00 +25°C° 0 mm 1 mps 727 mmHg 89%
20:00 +24°C° 0 mm 1 mps 728 mmHg 90%
21:00 +23°C° 0 mm 1 mps 728 mmHg 92%
22:00 +23°C° 0 mm 1 mps 728 mmHg 92%
23:00 +22°C° 0 mm 1 mps 728 mmHg 93%

Pasado mañana, 3 Marzo, Miércoles

Tiempo Temperatura Precipitaciones Viento Presión Humedad
00:00 +22°C° 0 mm 1 mps 729 mmHg 94%
01:00 +22°C° 0 mm 1 mps 728 mmHg 94%
02:00 +21°C° 0 mm 1 mps 728 mmHg 95%
03:00 +21°C° 0 mm 1 mps 728 mmHg 95%
04:00 +21°C° 0 mm 1 mps 728 mmHg 96%
05:00 +21°C° 0 mm 1 mps 728 mmHg 96%
06:00 +21°C° 0 mm 1 mps 729 mmHg 96%
07:00 +23°C° 0 mm 1 mps 729 mmHg 90%
08:00 +25°C° 0 mm 2 mps 729 mmHg 84%
09:00 +27°C° 0 mm 2 mps 730 mmHg 79%
10:00 +28°C° 0 mm 2 mps 730 mmHg 72%
11:00 +30°C° 0 mm 2 mps 730 mmHg 66%
12:00 +31°C° 0 mm 2 mps 730 mmHg 59%
13:00 +31°C° 0.1 mm 2 mps 729 mmHg 60%
14:00 +31°C° 0.1 mm 2 mps 729 mmHg 61%
15:00 +31°C° 0.1 mm 2 mps 728 mmHg 62%
16:00 +29°C° 0.5 mm 2 mps 728 mmHg 71%
17:00 +28°C° 0.5 mm 1 mps 728 mmHg 80%
18:00 +26°C° 0.5 mm 1 mps 727 mmHg 89%
19:00 +25°C° 0.1 mm 1 mps 728 mmHg 90%
20:00 +24°C° 0.1 mm 1 mps 728 mmHg 92%
21:00 +23°C° 0.1 mm 1 mps 729 mmHg 93%
22:00 +23°C° 0 mm 1 mps 728 mmHg 94%
23:00 +22°C° 0 mm 1 mps 728 mmHg 94%

4 Marzo, Jueves

Tiempo Temperatura Precipitaciones Viento Presión Humedad
00:00 +22°C° 0 mm 1 mps 728 mmHg 95%
01:00 +22°C° 0 mm 1 mps 728 mmHg 95%
02:00 +22°C° 0 mm 1 mps 728 mmHg 96%
03:00 +22°C° 0 mm 1 mps 727 mmHg 96%
04:00 +21°C° 0 mm 1 mps 727 mmHg 96%
05:00 +21°C° 0 mm 1 mps 728 mmHg 96%
06:00 +21°C° 0 mm 1 mps 728 mmHg 96%
07:00 +23°C° 0 mm 1 mps 728 mmHg 91%
08:00 +24°C° 0 mm 1 mps 728 mmHg 87%
09:00 +26°C° 0 mm 1 mps 729 mmHg 82%
10:00 +28°C° 0 mm 2 mps 728 mmHg 76%
11:00 +29°C° 0 mm 2 mps 728 mmHg 71%
12:00 +30°C° 0 mm 2 mps 728 mmHg 65%
13:00 +30°C° 0.1 mm 2 mps 728 mmHg 66%
14:00 +30°C° 0.1 mm 2 mps 727 mmHg 67%
15:00 +30°C° 0.1 mm 2 mps 726 mmHg 68%
16:00 +29°C° 0.3 mm 1 mps 726 mmHg 74%
17:00 +28°C° 0.3 mm 1 mps 726 mmHg 80%
18:00 +26°C° 0.3 mm 1 mps 725 mmHg 86%
19:00 +25°C° 0.1 mm 1 mps 726 mmHg 88%
20:00 +24°C° 0.1 mm 1 mps 726 mmHg 89%
21:00 +23°C° 0.1 mm 1 mps 726 mmHg 91%
22:00 +23°C° 0 mm 1 mps 726 mmHg 92%
23:00 +23°C° 0 mm 1 mps 726 mmHg 93%

5 Marzo, Viernes

Tiempo Temperatura Precipitaciones Viento Presión Humedad
00:00 +22°C° 0 mm 1 mps 726 mmHg 94%
01:00 +22°C° 0 mm 1 mps 725 mmHg 94%
02:00 +22°C° 0 mm 1 mps 725 mmHg 94%
03:00 +22°C° 0 mm 1 mps 724 mmHg 94%
04:00 +22°C° 0 mm 1 mps 724 mmHg 94%
05:00 +21°C° 0 mm 1 mps 724 mmHg 93%
06:00 +20°C° 0 mm 2 mps 725 mmHg 93%
07:00 +23°C° 0 mm 2 mps 725 mmHg 89%
08:00 +25°C° 0 mm 2 mps 725 mmHg 84%
09:00 +26°C° 0 mm 2 mps 725 mmHg 80%
10:00 +28°C° 0 mm 2 mps 725 mmHg 73%
11:00 +30°C° 0 mm 3 mps 725 mmHg 66%
12:00 +31°C° 0 mm 3 mps 725 mmHg 59%
13:00 +31°C° 0.3 mm 3 mps 725 mmHg 64%
14:00 +30°C° 0.3 mm 2 mps 724 mmHg 68%
15:00 +29°C° 0.3 mm 2 mps 724 mmHg 73%
16:00 +28°C° 0.5 mm 2 mps 723 mmHg 78%
17:00 +27°C° 0.5 mm 1 mps 723 mmHg 83%
18:00 +25°C° 0.5 mm 1 mps 723 mmHg 89%
19:00 +25°C° 0.7 mm 1 mps 724 mmHg 90%
20:00 +24°C° 0.7 mm 1 mps 724 mmHg 92%
21:00 +22°C° 0.7 mm 0 mps 725 mmHg 94%
22:00 +21°C° 0.3 mm 0 mps 725 mmHg 95%
23:00 +23°C° 0.3 mm 1 mps 725 mmHg 96%

6 Marzo, Sábado

Tiempo Temperatura Precipitaciones Viento Presión Humedad
00:00 +23°C° 0.3 mm 1 mps 724 mmHg 96%
01:00 +23°C° 0.2 mm 1 mps 724 mmHg 97%
02:00 +23°C° 0.2 mm 1 mps 724 mmHg 97%
03:00 +23°C° 0.2 mm 1 mps 724 mmHg 97%
04:00 +23°C° 0.2 mm 1 mps 724 mmHg 97%
05:00 +23°C° 0.2 mm 1 mps 724 mmHg 97%
06:00 +22°C° 0.2 mm 1 mps 724 mmHg 97%
07:00 +23°C° 0.1 mm 2 mps 724 mmHg 95%
08:00 +24°C° 0.1 mm 2 mps 724 mmHg 92%
09:00 +25°C° 0.1 mm 2 mps 725 mmHg 89%
10:00 +27°C° 0.1 mm 2 mps 725 mmHg 83%
11:00 +29°C° 0.1 mm 1 mps 725 mmHg 76%
12:00 +30°C° 0.1 mm 1 mps 724 mmHg 69%
13:00 +30°C° 1.1 mm 1 mps 724 mmHg 74%
14:00 +29°C° 1.1 mm 1 mps 724 mmHg 79%
15:00 +29°C° 1.1 mm 1 mps 723 mmHg 83%
16:00 +28°C° 0.6 mm 1 mps 723 mmHg 87%
17:00 +26°C° 0.6 mm 1 mps 723 mmHg 90%
18:00 +25°C° 0.6 mm 1 mps 723 mmHg 93%
19:00 +22°C° 0.1 mm 0 mps 723 mmHg 94%
20:00 +22°C° 0.1 mm 0 mps 724 mmHg 94%
21:00 +22°C° 0.1 mm 0 mps 724 mmHg 95%
22:00 +21°C° 0.2 mm 0 mps 724 mmHg 95%
23:00 +21°C° 0.2 mm 0 mps 724 mmHg 95%
Mostrar más

Necesitamos Su Consentimiento

Meteoprog y nuestros Proveedores de Servicios pueden almacenar y acceder a sus datos personales como cookies, identificadores de dispositivo u otras tecnologías similares de su dispositivo y procesar dichos datos para personalizar contenido y anuncios, además de ofrecer funciones de redes sociales y analizar el tráfico.

  • Almacenar y/o acceder a información en su dispositivo

    Se puede almacenar o acceder a cookies, identificadores de dispositivo u otra información de su dispositivo para los fines anteriormente indicados.

  • Anuncios y contenido personalizados, medición de anuncios y contenido, percepciones del público, y desarrollo de productos

    Los anuncios y el contenido pueden personalizarse en base a su perfil. Se pueden añadir más datos para personalizar mejor los anuncios y contenidos. Se puede medir el rendimiento de los anuncios y contenidos. Se puede obtener la percepción sobre el público que ha visto los anuncios y contenidos. Dichos datos pueden usarse para desarrollar o mejorar la experiencia del usuario, sistemas y software.

Al hacer clic en ‘Estoy De Acuerdo’ usted permitirá el uso de las cookies, identificadores de dispositivo, balizas web u otras tecnologías similares indicadas. Su configuración puede cambiarse desde el navegador de su dispositivo.

Para ciertos fines, los intereses legítimos pueden ser considerados por encima del consentimiento. Puede leer más sobre ello en nuestra Política de Privacidad y Cookies.